TimeCST,TemperatureF,Dew PointF,Humidity,Sea Level PressureIn,VisibilityMPH,Wind Direction,Wind SpeedMPH,Gust SpeedMPH,PrecipitationIn,Events,Conditions,WindDirDegrees,DateUTC
12:08 AM,42.8,37.4,81,29.50,10.0,SSE,16.1,25.3,N/A,,Clear,150,2012-12-03 06:08:00
12:29 AM,42.8,37.4,81,29.49,10.0,SSE,15.0,25.3,N/A,,Clear,150,2012-12-03 06:29:00
12:49 AM,42.8,37.4,81,29.47,10.0,SE,16.1,24.2,N/A,,Clear,140,2012-12-03 06:49:00
1:08 AM,42.8,37.4,81,29.46,10.0,SSE,15.0,21.9,N/A,,Clear,150,2012-12-03 07:08:00
1:29 AM,42.8,37.4,81,29.45,10.0,SSE,17.3,28.8,N/A,,Clear,150,2012-12-03 07:29:00
1:49 AM,42.8,37.4,81,29.45,10.0,SSE,12.7,25.3,N/A,,Clear,150,2012-12-03 07:49:00
2:08 AM,42.8,37.4,81,29.45,10.0,SSE,16.1,27.6,N/A,,Clear,150,2012-12-03 08:08:00
2:29 AM,42.8,37.4,81,29.45,10.0,SSE,12.7,21.9,N/A,,Clear,150,2012-12-03 08:29:00
2:49 AM,42.8,37.4,81,29.44,10.0,SSE,15.0,21.9,N/A,,Clear,150,2012-12-03 08:49:00
3:08 AM,42.8,37.4,81,29.44,10.0,SSE,11.5,18.4,N/A,,Clear,150,2012-12-03 09:08:00
3:29 AM,42.8,37.4,81,29.44,10.0,SSE,10.4,19.6,N/A,,Clear,150,2012-12-03 09:29:00
3:49 AM,42.8,37.4,81,29.43,10.0,SSE,10.4,16.1,N/A,,Clear,150,2012-12-03 09:49:00
4:08 AM,42.8,37.4,81,29.42,10.0,SSE,11.5,18.4,N/A,,Clear,150,2012-12-03 10:08:00
4:29 AM,42.8,37.4,81,29.42,10.0,SSE,12.7,19.6,N/A,,Clear,150,2012-12-03 10:29:00
4:49 AM,42.8,37.4,81,29.42,10.0,SSE,11.5,20.7,N/A,,Clear,150,2012-12-03 10:49:00
5:08 AM,42.8,37.4,81,29.41,10.0,SE,9.2,17.3,N/A,,Clear,140,2012-12-03 11:08:00
5:29 AM,42.8,37.4,81,29.42,10.0,SE,9.2,16.1,N/A,,Clear,140,2012-12-03 11:29:00
5:49 AM,42.8,37.4,81,29.42,10.0,SE,10.4,17.3,N/A,,Clear,140,2012-12-03 11:49:00
6:08 AM,42.8,37.4,81,29.40,10.0,SE,11.5,-,N/A,,Clear,130,2012-12-03 12:08:00
6:29 AM,42.8,37.4,81,29.41,10.0,SE,6.9,-,N/A,,Clear,140,2012-12-03 12:29:00
7:08 AM,42.8,37.4,81,29.40,10.0,SE,9.2,16.1,N/A,,Clear,140,2012-12-03 13:08:00
7:29 AM,44.6,39.2,81,29.40,10.0,SSE,11.5,18.4,N/A,,Clear,150,2012-12-03 13:29:00
7:49 AM,42.8,37.4,81,29.40,10.0,SSE,12.7,19.6,N/A,,Clear,150,2012-12-03 13:49:00
8:08 AM,42.8,39.2,87,29.40,10.0,SSE,11.5,21.9,N/A,,Clear,160,2012-12-03 14:08:00
8:29 AM,42.8,39.2,87,29.39,7.0,SSE,13.8,20.7,N/A,,Clear,160,2012-12-03 14:29:00
8:49 AM,44.6,39.2,81,29.39,7.0,South,9.2,19.6,N/A,,Clear,170,2012-12-03 14:49:00
9:08 AM,44.6,41.0,87,29.40,7.0,South,11.5,19.6,N/A,,Clear,170,2012-12-03 15:08:00
9:29 AM,44.6,41.0,87,29.40,7.0,SSE,10.4,18.4,N/A,,Clear,160,2012-12-03 15:29:00
9:49 AM,44.6,41.0,87,29.40,7.0,South,8.1,17.3,N/A,,Clear,170,2012-12-03 15:49:00
10:29 AM,46.4,42.8,87,29.41,7.0,South,9.2,-,N/A,,Scattered Clouds,190,2012-12-03 16:29:00
10:49 AM,46.4,42.8,87,29.40,7.0,South,5.8,-,N/A,,Scattered Clouds,190,2012-12-03 16:49:00
11:08 AM,46.4,42.8,87,29.41,7.0,SSW,8.1,-,N/A,,Mostly Cloudy,200,2012-12-03 17:08:00
11:29 AM,44.6,39.2,81,29.42,10.0,SW,15.0,20.7,N/A,,Overcast,220,2012-12-03 17:29:00
11:49 AM,41.0,35.6,81,29.44,10.0,SW,16.1,23.0,N/A,,Drizzle,230,2012-12-03 17:49:00
12:08 PM,39.2,35.6,87,29.45,7.0,SW,15.0,24.2,N/A,Rain,Light Rain,230,2012-12-03 18:08:00
12:48 PM,37.4,35.6,93,29.45,5.0,SW,10.4,-,0.02,,Drizzle,230,2012-12-03 18:48:00
1:08 PM,37.4,35.6,93,29.47,7.0,WSW,12.7,-,N/A,,Overcast,240,2012-12-03 19:08:00
1:29 PM,37.4,35.6,93,29.48,7.0,WSW,12.7,-,N/A,Rain,Light Rain,240,2012-12-03 19:29:00
1:48 PM,37.4,35.6,93,29.48,5.0,SW,11.5,-,N/A,,Overcast,230,2012-12-03 19:48:00
2:08 PM,37.4,35.6,93,29.47,5.0,SW,11.5,16.1,N/A,,Overcast,230,2012-12-03 20:08:00
2:29 PM,37.4,35.6,93,29.48,10.0,WSW,16.1,20.7,N/A,,Overcast,240,2012-12-03 20:29:00
2:48 PM,37.4,35.6,93,29.49,10.0,SW,16.1,21.9,N/A,,Overcast,230,2012-12-03 20:48:00
3:08 PM,35.6,35.6,100,29.51,10.0,WSW,15.0,19.6,N/A,,Overcast,240,2012-12-03 21:08:00
3:29 PM,35.6,33.8,93,29.51,10.0,SW,15.0,19.6,N/A,,Overcast,230,2012-12-03 21:29:00
3:48 PM,35.6,33.8,93,29.53,10.0,WSW,16.1,24.2,N/A,,Overcast,240,2012-12-03 21:48:00
4:08 PM,35.6,33.8,93,29.54,10.0,WSW,17.3,21.9,N/A,,Overcast,250,2012-12-03 22:08:00
4:29 PM,35.6,33.8,93,29.55,10.0,WSW,20.7,24.2,N/A,,Overcast,240,2012-12-03 22:29:00
4:48 PM,33.8,30.2,87,29.56,10.0,WSW,20.7,31.1,N/A,,Overcast,250,2012-12-03 22:48:00
5:08 PM,33.8,30.2,87,29.57,10.0,WSW,19.6,26.5,N/A,,Overcast,250,2012-12-03 23:08:00
5:29 PM,33.8,28.4,81,29.57,10.0,WSW,21.9,29.9,N/A,,Overcast,250,2012-12-03 23:29:00
5:48 PM,33.8,28.4,81,29.58,10.0,WSW,21.9,28.8,N/A,,Overcast,250,2012-12-03 23:48:00
6:09 PM,32.0,28.4,87,29.60,10.0,WSW,23.0,35.7,N/A,,Overcast,250,2012-12-04 00:09:00
6:29 PM,30.2,26.6,86,29.61,10.0,WSW,28.8,39.1,N/A,,Overcast,250,2012-12-04 00:29:00
6:48 PM,30.2,24.8,80,29.62,10.0,WSW,29.9,38.0,N/A,,Overcast,250,2012-12-04 00:48:00
7:09 PM,28.4,23.0,80,29.64,10.0,West,26.5,34.5,N/A,,Overcast,260,2012-12-04 01:09:00
7:29 PM,28.4,21.2,74,29.66,10.0,WSW,23.0,33.4,N/A,,Overcast,250,2012-12-04 01:29:00
7:48 PM,28.4,21.2,74,29.66,10.0,WSW,21.9,33.4,N/A,,Overcast,250,2012-12-04 01:48:00
8:09 PM,26.6,21.2,80,29.68,10.0,WSW,23.0,31.1,N/A,,Overcast,240,2012-12-04 02:09:00
8:29 PM,26.6,19.4,74,29.70,10.0,WSW,23.0,34.5,N/A,,Overcast,240,2012-12-04 02:29:00
8:48 PM,24.8,17.6,74,29.71,10.0,West,25.3,31.1,N/A,,Overcast,260,2012-12-04 02:48:00
9:09 PM,23.0,15.8,74,29.72,10.0,West,25.3,33.4,N/A,,Mostly Cloudy,260,2012-12-04 03:09:00
9:29 PM,21.2,15.8,80,29.73,10.0,WSW,23.0,29.9,N/A,,Mostly Cloudy,250,2012-12-04 03:29:00
9:48 PM,21.2,15.8,80,29.73,10.0,WSW,23.0,31.1,N/A,,Mostly Cloudy,250,2012-12-04 03:48:00
10:09 PM,21.2,14.0,74,29.75,10.0,West,21.9,33.4,N/A,,Overcast,260,2012-12-04 04:09:00
10:28 PM,19.4,14.0,80,29.76,10.0,WSW,19.6,29.9,N/A,,Overcast,250,2012-12-04 04:28:00
10:49 PM,19.4,14.0,80,29.77,10.0,West,20.7,28.8,N/A,Snow,Light Snow,260,2012-12-04 04:49:00
11:09 PM,19.4,12.2,74,29.78,10.0,West,19.6,31.1,N/A,,Overcast,260,2012-12-04 05:09:00
11:28 PM,17.6,12.2,79,29.79,10.0,West,21.9,29.9,N/A,,Overcast,260,2012-12-04 05:28:00
11:49 PM,17.6,10.4,73,29.80,10.0,West,24.2,33.4,N/A,,Mostly Cloudy,260,2012-12-04 05:49:00